Regional Weather Roundup
Issued by NWS

Home | Current Version | Previous Version | Graphics & Text | Print | Product List | Glossary On
Versions: 1 2 3 4 5 6 7 8 9 10 11 12 13 14 15 16 17 18 19 20 21 22 23 24 25 26 27 28 29 30 31 32 33 34 35 36 37 38 39 40 41 42 43 44 45 46 47 48 49 50
000
ASUS43 KBIS 240810
RWRND

NORTH DAKOTA REGIONAL WEATHER ROUNDUP
NATIONAL WEATHER SERVICE BISMARCK ND
200 AM CST FRI FEB 24 2017

NOTE: "FAIR" INDICATES FEW OR NO CLOUDS BELOW 12,000 FEET WITH NO
SIGNIFICANT WEATHER AND/OR OBSTRUCTIONS TO VISIBILITY.


NDZ001>003-009>011-017-240900-
NORTHWEST NORTH DAKOTA

CITY           SKY/WX    TMP DP  RH WIND       PRES   REMARKS
WILLISTON      CLOUDY    10   7  87 CALM      30.16S
MINOT          CLOUDY    24  16  71 W9        30.13S WCI  14
$$

NDZ018>021-031>035-040>046-240900-
SOUTHWEST NORTH DAKOTA

CITY           SKY/WX    TMP DP  RH WIND       PRES   REMARKS
BISMARCK       FAIR      16  11  80 W3        30.16S
DICKINSON      FAIR      12   7  80 NE6       30.09S WCI   3
GARRISON         N/A      9   6  88 CALM      30.14S
HETTINGER ARPT CLEAR     14  10  84 N7        30.10S WCI   4
$$

NDZ004>008-012>016-024-026-027-054-240900-
NORTHEAST NORTH DAKOTA

CITY           SKY/WX    TMP DP  RH WIND       PRES   REMARKS
GRAND FORKS    CLEAR     18  10  71 N8        30.15F WCI   8
GRND FRKS AFB  CLEAR     15  11  85 N7        30.16S WCI   5
DEVILS LAKE    CLOUDY    16  13  88 SW5       30.14R WCI   9
$$

NDZ022-023-025-028>030-036>039-047>053-240900-
SOUTHEAST NORTH DAKOTA

CITY           SKY/WX    TMP DP  RH WIND       PRES   REMARKS
FARGO          CLOUDY    21  12  68 N21       30.10F WCI   5
JAMESTOWN      FAIR      19  16  88 N9        30.10F WCI   8
$$





USA.gov is the U.S. government's official web portal to all federal, state and local government web resources and services.